User: anonymous   Login
Location: Unspecified
(0.0000°N, 0.0000°E)
Time: 04:17:28
(UTC+00:00)
Language:

STARLINK-31654 - Orbit

View from above orbital plane
View from above orbital plane
View from above satellite
View from above satellite

Ground track
Ground track

The orbit is defined by the following mean orbital elements,

1 59858U          26145.59463101 +.00000000 +00000-0 -49298-4 0 00002
2 59858  43.0065 196.2550 0001931 282.2090  77.8545 15.27583966    08
Epoch (UTC): 25 May 2026 14:16:16
Eccentricity: 0.0001931
inclination: 43.0065°
perigee height: 482 km
apogee height: 484 km
right ascension of ascending node: 196.2550°
argument of perigee: 282.2090°
revolutions per day: 15.27583966
mean anomaly at epoch: 77.8545°

The dashed part of the orbit path shows where the satellite is in the earth's shadow,  

DLR